Regional Weather Roundup
Issued by NWS

Home | Current Version | Previous Version | Text Only | Print | Product List | Glossary Off
Versions: 1 2 3 4 5 6 7 8 9 10 11 12 13 14 15 16 17 18 19 20 21 22 23 24 25 26 27 28 29 30 31 32 33 34 35 36 37 38 39 40 41 42 43 44 45 46 47 48 49 50

995
ASUS43 KMPX 280110
RWRMN
WEATHER ROUNDUP FOR MINNESOTA
NATIONAL WEATHER SERVICE TWIN CITIES/CHANHASSEN MN
800 PM CDT TUE SEP 27 2016


NOTE: "FAIR" INDICATES FEW OR NO CLOUDS BELOW 12,000 FEET WITH NO
SIGNIFICANT WEATHER AND/OR OBSTRUCTIONS TO VISIBILITY. N/A MEANS
CURRENT SKY AND/OR WEATHER CONDITIONS ARE NOT AVAILABLE.

MNZ060>063-068>070-280200-
   Twin Cities Metro

CITY           SKY/WX    TMP DP  RH WIND       PRES   REMARKS
TWIN CITIES    CLOUDY    50  46  86 NW10      29.85R
ST PAUL        CLOUDY    50  47  89 NW12      29.85S
CRYSTAL        CLOUDY    50  45  83 NW9       29.85R
BLAINE         CLOUDY    52  50  93 NW12      29.84R
LAKEVILLE      CLOUDY    48  48 100 NW8G16    29.85S
EDEN PRAIRIE   LGT RAIN  51  46  83 NW9       29.84S
LAKEVILLE      CLOUDY    48  48 100 NW8G16    29.85S
SOUTH ST PAUL  CLOUDY    51  46  85 NW7       29.85R
LAKE ELMO      CLOUDY    50  46  87 N8        29.85R
$$
MNZ001>005-007-008-013>017-022>024-027-028-280200-
   Northwest Minnesota

CITY           SKY/WX    TMP DP  RH WIND       PRES   REMARKS
BEMIDJI        CLOUDY    45  42  91 NW6       29.92R
HALLOCK        CLOUDY    52  46  82 NE8       29.97R
ROSEAU         CLOUDY    50  43  76 N6        29.96R
WARROAD        CLOUDY    48  43  81 VRB7      29.97R
THIEF RVR FALL   N/A     49  43  80 N9        29.97R
CROOKSTON      CLOUDY    54  46  76 NE8       29.96R
FOSSTON        CLOUDY    43  41  93 N6        29.96R
DETROIT LAKES  CLOUDY    50  45  81 N10G18    29.93S
MOORHEAD       CLOUDY    54  43  66 N14       29.95R
PARK RAPIDS    MOCLDY    48  41  76 N14       29.91R
MAHNOMEN       CLOUDY    47  44  90 NE9       29.94R
$$
MNZ006-009>011-018-025>026-280200-
   North Central Minnesota

CITY           SKY/WX    TMP DP  RH WIND       PRES   REMARKS
BAUDETTE       CLOUDY    50  43  77 N10       29.94R
FLAG ISLAND    MOCLDY    52  43  71 N14       29.95R
INTL FALLS     CLOUDY    50  46  86 N12       29.90R
WASKISH        CLOUDY    48  46  93 NW5       29.93R
BIG FORK       CLOUDY    48  45  87 CALM      29.90R
LONGVILLE      MOCLDY    46  45  93 CALM      29.89R
GRAND RAPIDS   CLOUDY    47  45  93 NW10      29.89R
ORR            CLOUDY    48  45  87 CALM      29.86R
COOK           CLOUDY    48  46  93 N6        29.87R
WALKER         CLOUDY    45  42  89 N7        29.91R
$$
MNZ012-019>021-037-280200-
   Northeast Minnesota

CITY           SKY/WX    TMP DP  RH WIND       PRES   REMARKS
DULUTH         CLOUDY    49  46  90 N9        29.81R
ELY            CLOUDY    48  46  93 N3        29.83R
HIBBING        CLOUDY    47  45  93 NW9       29.85R
EVELETH        CLOUDY    50  46  85 N7        29.86R
DULUTH HARBOR  DRIZZLE   52  46  82 N5        29.82R
TWO HARBORS    CLOUDY    54  46  76 N6        29.77R
SILVER BAY     CLOUDY    52  46  82 N7G16     29.76R
GRAND MARAIS     N/A     54  48  80 N12G25    29.73R
G MARAIS ARPRT CLOUDY    46  45  93 NW6       29.77R FOG
$$
MNZ029>031-032-039>041-046>048-054>057-064-280200-
   West Central Minnesota

CITY           SKY/WX    TMP DP  RH WIND       PRES   REMARKS
FERGUS FALLS   CLOUDY    52  43  71 N13G18    29.94R
MORRIS         CLOUDY    55  43  62 N15       29.89R
ALEXANDRIA     CLOUDY    51  43  74 N12G22    29.90S
ELBOW LAKE     CLOUDY    52  43  71 N12G22    29.92R
WADENA         CLOUDY    46  45  93 N6        29.91R
GLENWOOD       MOCLDY    52  43  71 N8        29.90R
BENSON         CLOUDY    55  43  62 NE8       29.89R
ORTONVILLE     CLEAR     57  37  47 N12       29.89R
MADISON        CLEAR     61  36  39 N10G17    29.88R
WILLMAR        CLOUDY    55  45  67 N10       29.89R
$$
MNZ033>034-036-042>043-049>051-058-059-280200-
   Central Minnesota

CITY           SKY/WX    TMP DP  RH WIND       PRES   REMARKS
ST CLOUD       MOCLDY    49  46  90 NW10      29.87R
SAUK CENTRE    CLOUDY    49  43  80 N8        29.89S
PAYNESVILLE    CLOUDY    49  46  87 N7        29.89S
AITKIN         PTCLDY    48  43  81 NW6       29.86R
PINE RIVER     MOCLDY    46  45  93 NW7       29.93R
BRAINERD       MOCLDY    47  44  90 N9G21     29.89R
STAPLES        MOCLDY    46  45  93 N9        29.90R
LONG PRAIRIE   CLOUDY    46  43  87 NW8G16    29.90R
LITTLE FALLS   MOCLDY    46  43  87 NW6       29.89R
LITCHFIELD     CLOUDY    52  46  82 N13       29.88S
BUFFALO        CLOUDY    50  45  83 NW8       29.87S
MAPLE LAKE     CLOUDY    50  47  90 NW7       29.87S
HUTCHINSON     CLOUDY    52  47  83 N10G17    29.88R
$$
MNZ037-044-045-052-053-280200-
   East Central Minnesota

CITY           SKY/WX    TMP DP  RH WIND       PRES   REMARKS
PRINCETON        N/A     48  46  93 NW6       29.86R
MORA           CLOUDY    45  43  93 NW7       29.87R
CAMBRIDGE      CLOUDY    52  43  71 NW5       29.84R
MOOSE LAKE     MOCLDY    46  43  87 N3        29.82R
HINCKLEY       CLOUDY    46  45  93 NW7       29.84R
CLOQUET        CLOUDY    48  45  87 NW13G18   29.82R
MCGREGOR       MOCLDY    46  45  93 NW8       29.87R
$$
MNZ071>073-080-081-089-090-097-098-280200-
   Southwest Minnesota

CITY           SKY/WX    TMP DP  RH WIND       PRES   REMARKS
MONTEVIDEO     CLOUDY    59  39  47 NE14G22   29.89R
GRANITE FALLS  CLOUDY    61  40  46 N12G17    29.88R
CANBY          CLEAR     54  34  46 NW5       29.89R
MARSHALL       CLOUDY    59  31  34 NW7       29.87R
REDWOOD FALLS  CLOUDY    59  37  44 N8        29.86R
OLIVIA         CLOUDY    55  45  67 N13G18    29.86R
PIPESTONE      CLEAR     61  36  39 N5        29.88R
WINDOM         CLOUDY    61  30  31 N9        29.85R
WORTHINGTON    CLEAR     55  40  56 NW8       29.87R
JACKSON        CLOUDY    61  32  33 N3        29.85R
TRACY          CLOUDY    63  32  32 N9        29.86S
$$
MNZ065>067-074>077-082>085-091>093-280200-
   South Central Minnesota

CITY           SKY/WX    TMP DP  RH WIND       PRES   REMARKS
MANKATO        CLOUDY    54  44  69 N15G24    29.86R
NEW ULM        CLOUDY    57  41  54 NE10G17   29.85R
ST JAMES       CLOUDY    61  36  39 N10G17    29.85R
FAIRMONT       CLOUDY    60  36  40 N6        29.83
GLENCOE        CLOUDY    51  48  91 N7        29.86S
FARIBAULT      CLOUDY    50  46  87 N7G16     29.86R
OWATONNA       RAIN      50  45  81 N14G21    29.85R
WASECA         CLOUDY    54  43  66 N15G22    29.86R
ALBERT LEA     MOCLDY    59  37  44 N10       29.82R
$$
MNZ078>079-086>088-094>096-280200-
   Southeast Minnesota

CITY           SKY/WX    TMP DP  RH WIND       PRES   REMARKS
ROCHESTER      LGT RAIN  49  46  90 N12       29.84R
RED WING       DRIZZLE   50  46  87 NW5       29.82S
DODGE CENTER   LGT RAIN  48  45  87 N9        29.85R
WINONA         DRIZZLE   50  46  87 W3        29.82S
AUSTIN         CLOUDY    55  41  58 NE13G20   29.82R
PRESTON        CLOUDY    49  45  83 N10       29.84R
$$
ABBREVIATIONS USED IN REMARKS
   TC - TEMPERATURES IN CELSIUS
  WCI - WIND CHILL INDEX
   HX - HEAT INDEX
  VSB - VISIBILITY
$$




USA.gov is the U.S. government's official web portal to all federal, state and local government web resources and services.